www.pogodaiklimat.ru

Погода и климат >> Архив погоды >> Китай >> Chenzhou


ПОГОДА в Chenzhou

  • Прогноз погоды в Chenzhou
  • Монитор погоды в Chenzhou
  • Климат города

АРХИВ ПОГОДЫ в Chenzhou

Время (UTC), дата Ветер
(напр.,м/с)
 
Видим.   Явления Облачность Т
(С)
Тd
(С)
f
(%)
Тe
(С)
Тes
(С)
Комфортность P
(гПа)
Po
(гПа)
Тmin
(С)
Tmax
(С)
R
(мм)
R24
(мм)
S
(см)
03 16.09 С 3 30 км 10/10 1500 м
[]
+25.5 +22.0 81 +33 +33 очень
душно
1006.7 1007.0
06 16.09 С 11 30 км слабый дождь 10/10 300 м
[]
+27.0 +21.7 73 +35 +35 очень
душно
1003.8 1019.3 +24.0
09 16.09 С 7 30 км слабый дождь 10/10 300 м
[]
+25.5 +22.0 81 +33 +33 очень
душно
1003.7 1004.0
12 16.09 С 6 30 км слабый дождь 10/10 300 м
[]
+24.4 +22.3 88 +32 +32 очень
душно
1004.7 963.0 0.5
15 16.09 С 7 30 км н/о +24.5 +22.2 87 +32 +32 очень
душно
1005.3 1005.0
18 16.09 СВ 2 30 км ?/? +24.6 +21.3 82 +31 +31 очень
душно
1004.7 963.2 +27.5 1
21 16.09 Ю 2 30 км н/о +24.1 +21.2 84 +30 +30 очень
душно
1005.9 1006.0
00 17.09 С 2 26 км слабый дождь 10/10 300 м
[]
+22.7 +22.2 97 +31 +31 очень
душно
1008.0 966.0 6
03 17.09 ЮВ 2 30 км слабый дождь 10/10 300 м
[]
+25.2 +22.7 86 +33 +33 очень
душно
1009.5 952.6
06 17.09 С 4 30 км {дождь} 10/10 600 м
[]
+27.8 +22.7 74 +37 +37 очень
душно
1008.1 966.5 +22.6 0.7
09 17.09 С 1 30 км 10/10 1000 м
[]
+28.4 +22.4 70 +37 +37 очень
душно
1008.4 1008.0
12 17.09 Ю 4 30 км в посл. час дождь 8/8 1000 м
[]
+24.3 +22.4 89 +32 +32 очень
душно
1011.8 969.7 5
15 17.09 Ю 3 30 км н/о +24.3 +22.2 88 +32 +32 очень
душно
1013.4 957.1
18 17.09 ЮВ 2 30 км ?/? +23.9 +22.3 91 +31 +31 очень
душно
1013.1 971.2 +29.4 0.2
21 17.09 В 1 30 км н/о +24.5 +22.0 86 +32 +32 очень
душно
1012.8 1013.0
00 18.09 В 2 30 км 10/10 1500 м
[]
+24.7 +23.1 91 +33 +33 очень
душно
1014.4 972.3 0.2
03 18.09 Ю 7 30 км 9/9 1000 м
[]
+28.7 +22.9 71 +38 +39 очень
душно
1014.9 958.3
06 18.09 Ю 7 30 км 9/9 1000 м
[]
+29.3 +22.5 67 +39 +39 очень
душно
1013.2 971.4 +23.6
09 18.09 Ю 7 30 км 9/9 1000 м
[]
+28.9 +22.2 67 +38 +38 очень
душно
1012.0 1012.0
12 18.09 Ю 2 30 км 8/8 1000 м
[]
+27.3 +22.5 75 +36 +36 очень
душно
1013.9 972.0
15 18.09 Ю 5 30 км ?/? +26.6 +22.9 80 +35 +35 очень
душно
1014.6 958.6
18 18.09 Ю 1 30 км ?/? +25.6 +22.7 84 +34 +34 очень
душно
1014.2 972.5 +30.3
21 18.09 Ю 2 30 км н/о +23.8 +22.4 92 +31 +31 очень
душно
1013.5 1014.0
00 19.09 Ю 2 30 км 3/3
[]
+26.3 +22.8 81 +35 +37 очень
душно
1014.8 973.0
03 19.09 В 1 30 км 5/5 1000 м
[]
+30.3 +22.5 63 +40 +49 очень
душно
1014.5 958.4
06 19.09 СЗ 2 30 км ясно +32.5 +22.0 54 +41 +56 опасность
перегрева
1012.0 970.6 +23.5
09 19.09 З 3 30 км 6/6 1000 м
[]
+32.8 +21.6 52 +41 +42 опасность
перегрева
1010.3 1010.0
12 19.09 З 2 30 км 8/8
[]
+29.9 +22.1 63 +39 +39 очень
душно
1011.3 969.8
15 19.09 Ю 4 30 км н/о +27.1 +22.3 75 +35 +35 очень
душно
1011.4 1011.0
18 19.09 Ю 4 30 км ?/? +26.1 +21.8 77 +34 +34 очень
душно
1010.2 1024.6 +33.7
21 19.09 З 2 30 км н/о +26.2 +21.6 76 +34 +34 очень
душно
1010.5 1011.0
00 20.09 Ю 2 30 км 3/3
[]
+26.0 +22.7 82 +34 +36 очень
душно
1012.0 970.5
03 20.09 В 1 30 км 3/3
[]
+30.8 +22.1 60 +40 +52 опасность
солнечного
удара
1011.8 955.7
06 20.09 С 5 30 км 6/6 1000 м
[]
+33.0 +23.4 57 +44 +47 опасность
перегрева
1009.1 967.9 +24.6
09 20.09 З 1 30 км 6/6 1000 м
[]
+33.8 +22.9 53 +44 +45 опасность
перегрева
1008.0 1008.0
12 20.09 ЮЗ 4 29 км слабый ливневой дождь 10/10 300 м
[]
+25.9 +22.4 81 +34 +34 очень
душно
1011.4 969.6 1
15 20.09 Ю 5 30 км н/о +24.5 +22.2 87 +32 +32 очень
душно
1010.8 1011.0
18 20.09 Ю 5 30 км ?/? +24.8 +22.3 86 +32 +32 очень
душно
1009.7 1023.9 +34.5 1
21 20.09 Ю 3 30 км ?/? +25.2 +21.1 78 +32 +32 очень
душно
1010.1 1010.0
00 21.09 СВ 2 30 км 5/5
[]
+25.9 +22.0 79 +33 +35 очень
душно
1012.7 970.9 1
03 21.09 С 3 30 км 1/1
[]
+29.4 +24.5 75 +42 +53 опасность
перегрева
1013.0 1013.0
06 21.09 С 5 30 км 6/6 1000 м
[]
+29.7 +23.6 70 +41 +44 опасность
перегрева
1011.0 1026.3 +22.9
09 21.09 С 6 30 км 10/10 1500 м
[]
+26.4 +22.3 78 +34 +34 очень
душно
1011.7 1012.0
12 21.09 С 3 30 км 9/9 1500 м
[]
+25.5 +22.4 83 +33 +33 очень
душно
1013.6 971.7
15 21.09 С 2 30 км н/о +24.4 +21.9 86 +31 +31 очень
душно
1014.3 958.7
18 21.09 С 3 30 км ?/? +22.8 +20.7 88 +30 +30 очень
душно
1015.1 973.2 +30.5
21 21.09 С 4 30 км ?/? +21.4 +20.2 93 +27 +27 душно 1015.2 1015.0
00 22.09 С 2 30 км 10/10 1500 м
[]
+21.8 +20.3 91 +28 +28 душно 1016.6 974.3 0.0
03 22.09 С 3 30 км 10/10 1500 м
[]
+22.3 +20.0 87 +28 +28 душно 1017.4 959.8
06 22.09 С 2 30 км 10/10 1500 м
[]
+24.4 +20.9 81 +31 +31 очень
душно
1015.3 973.0 +21.1
09 22.09 С 3 30 км 10/10 1500 м
[]
+24.5 +21.0 81 +31 +31 очень
душно
1015.0 1015.0
12 22.09 СЗ 1 30 км 10/10 1500 м
[]
+23.7 +21.2 86 +30 +30 очень
душно
1016.0 973.6
15 22.09 С 2 30 км ?/? +23.3 +21.2 88 +31 +31 очень
душно
1016.8 1017.0
18 22.09 С 1 30 км ?/? +23.0 +21.1 89 +31 +31 очень
душно
1016.1 973.8 +25.0
21 22.09 С 3 30 км ?/? +22.2 +21.2 94 +29 +29 очень
душно
1015.5 1016.0

 

Местоположение метеостанции Chenzhou (Китай): широта 25.80 долгота 113.03 высота над уровнем моря 185 м.

В архиве по умолчанию представлена погода в Chenzhou за последнюю неделю. Архивные данные за месяц целиком и за предыдущие месяцы, начиная с января 2011 года, Вы можете получить, выбрав интересующий диапазон дат из раскрывающегося списка и нажав кнопку "Ввод!".


*Определитесь, кто Вы:
робот инопланетянин человек

Внимание! Время в таблицах - всемирное. Для получения местного времени необходимо прибавить поправку, которая в Chenzhou равна 8 ч.

Смотрите также архив погоды в соседних городах и на ближайших метеорологических станциях:

Погода в Shaoguan (Китай) (124 км)
Погода в Lian Xian (Китай) (131 км)
Погода в Lingling (Китай) (150 км)
Погода в Nanyue (Китай) (170 км)
Погода в Ganzhou (Китай) (197 км)
Погода в Lianping (Китай) (216 км)
Погода в Fogang (Китай) (221 км)
Погода в Shaoyang (Китай) (223 км)
Погода в Jian (Китай) (242 км)
Погода в Yichun (Китай) (260 км)

Пояснения к столбцам:

Ветер - указаны скорость ветра в м/с - средняя за 10 мин, порывы в срок и между сроками (в фигурных скобках) и направление, откуда дует ветер: С - северный, СВ - северо-восточный, В - восточный, ЮВ - юго-восточный, Ю - южный, ЮЗ - юго-западный, З - западный, СЗ - северо-западный.
Видимость - горизонтальная дальность видимости в метрах или километрах. При видимости от 1 до 10 км при отсутствии осадков обычно наблюдается дымка, при ухудшении видимости до 1 км и менее - туман. В сухую погоду видимость может ухудшаться дымом, пылью или мглою.
Явления - указаны атмосферные явления, наблюдавшиеся в срок или в последний час перед сроком; фигурными скобками обозначены явления, наблюдавшиеся между сроками (за 1-3 часа до срока); квадратными скобками обозначены град или гололедные отложения с указанием их диаметра в мм.
Облачность - указаны через наклонную черту общая и нижняя облачность в баллах и высота нижней границы облаков в метрах; квадратными скобками обозначены формы облаков: Ci - перистые, Cs - перисто-слоистые, Cc - перисто-кучевые, Ac - высококучевые, As - высокослоистые, Sc - слоисто-кучевые, Ns - слоисто-дождевые, Cu - кучевые, Cb - кучево-дождевые. Подробнее классификацию облаков см. в Атласе облаков (PDF).
T - Температура воздуха - температура, измеренная на высоте 2 м над землей.
Td - Температура точки росы - температура, при понижении до которой содержащийся в воздухе водяной пар достигнет насыщения.
f - Относительная влажность воздуха - влажноcть воздуха, измеренная на высоте 2 м над землей.
Te - Эффективная температура - температура, которую ощущает одетый по сезону человек в тени. Характеристика душности погоды. При расчете учитывается влияние влажности воздуха и скорости ветра на теплоощущения человека.
Tes - Эффективная температура на солнце - температура, которую ощущает человек, с поправкой на солнечный нагрев. Характеристика знойности погоды. Зависит от высоты солнца над горизонтом, облачности и скорости ветра. Ночью, в пасмурную погоду, а также при ветре 12 м/с и более поправка равна нулю.
P - Атмосферное давление - приведенное к уровню моря атмосферное давление.
Po - Атмосферное давление - измеренное на уровне метеостанции атмосферное давление.
Tmin - Минимальная температура - минимум температуры воздуха на высоте 2 м над землей.
Tmax - Максимальная температура - максимум температуры воздуха на высоте 2 м над землей.
R - Количество осадков - Количество выпавших осадков за период времени, мм. При наведении курсора мыши на число - период времени, за который выпало указанное количество осадков.
R24 - Количество осадков - Количество выпавших осадков за 24 часа, мм.
S - Снежный покров - Высота снежного покрова, см. При наведении курсора мыши на число - состояние снежного покрова и степень покрытия местности в баллах.